Regional Weather Roundup
Issued by NWS Grand Forks, ND

Home | Current Version | Previous Version | Graphics & Text | Print | Product List | Glossary On
Versions: 1 2 3 4 5 6 7 8 9 10 11 12 13 14 15 16 17 18 19 20 21 22 23 24 25 26 27 28 29 30 31 32 33 34 35 36 37 38 39 40 41 42 43 44 45 46 47 48 49 50
679
ASUS43 KFGF 302110
RWRFGF
PRAIRIE TO PINES  WEATHER ROUNDUP
NATIONAL WEATHER SERVICE EASTERN NORTH DAKOTA/GRAND FORKS ND
400 PM CDT TUE AUG 30 2016

 **SATELLITE DATA USED TO AUGMENT SKY COVER AT AUTOMATED STATIONS**
 *****  WEATHER ACROSS EASTERN NORTH DAKOTA  *****

CITY           SKY/WX    TMP DP  RH WIND       PRES   REMARKS
GRAND FORKS    MOSUNNY   80  52  37 NW6       30.20F
GRAND FRKS AFB SUNNY     79  52  38 N6        30.21F
GRAND FRKS NWS   N/A     81 N/A N/A NW7         N/A
DEVILS LAKE    SUNNY     77  50  38 VRB3      30.24F
FARGO          SUNNY     81  50  33 NE8       30.20F
WAHPETON ARPT  CLEAR     79  46  31 NE3       30.20F
$$

 ***** WEATHER ACROSS CENTRAL AND WESTERN NORTH DAKOTA  *****

CITY           SKY/WX    TMP DP  RH WIND       PRES   REMARKS
BISMARCK       MOSUNNY   84  47  27 S10       30.19F
MINOT          CLOUDY    82  44  26 SE10      30.19F
JAMESTOWN      SUNNY     81  51  35 E7        30.22F
MINOT AFB      CLOUDY    83  43  24 SE12      30.17F
GARRISON         N/A     82  46  28 S12       30.18F
WILLISTON      MOSUNNY   85  50  29 SE12G22   30.14F
DICKINSON      PTSUNNY   80  55  42 SE18      30.15F
HETTINGER      MOSUNNY   83  61  47 SE14      30.20F
$$

 *****  OTHER AIRPORT OBSERVATIONS IN OUR AREA  *****

CITY           SKY/WX    TMP DP  RH WIND       PRES   REMARKS
WALHALLA       NOT AVBL
GRAFTON AIRPOR FAIR      79  50  36 N9        30.22F
VALLEY CITY AR FAIR      77  54  44 NW5       30.25S
CANDO          NOT AVBL
CAVALIER APRT  FAIR      77  50  38 N6        30.21F
GWINNER        FAIR      81  54  39 E5        30.21F
SHEYENNE NWR     N/A     81  55  40 E6        29.95S
ROLLA            N/A     75  46  35 CALM      30.25F
 ***** THE ABOVE OBSERVATIONS ARE NON NWS ARE NOT QUALITY
       CONTROLLED AND MAY MIS-REPORT RAIN FOR SNOW...
$$

  *****  WEATHER ACROSS NORTHERN MINNESOTA  *****

CITY           SKY/WX    TMP DP  RH WIND       PRES   REMARKS
FLAG ISLAND    SUNNY     72  45  37 NW5       30.18S
WARROAD        SUNNY     73  55  53 W7        30.20S
ROSEAU         SUNNY     75  52  43 W12       30.20F
HALLOCK        SUNNY     75  45  33 NW8       30.20F
THF RVR FALLS  SUNNY     76  50  40 W9        30.22F
BAUDETTE       SUNNY     73  52  47 NW10      30.19F
WASKISH        SUNNY     73  55  53 SW9       30.19F
CROOKSTON      SUNNY     77  50  38 NW8       30.21F
GREENBUSH NDAW   N/A     77  46  33 NW7         N/A
$$
  *****  WEATHER ACROSS CENTRAL AND WEST MINNESOTA  *****

CITY           SKY/WX    TMP DP  RH WIND       PRES   REMARKS
FOSSTON        SUNNY     75  52  43 NW7       30.22F
BEMIDJI        SUNNY     73  51  46 NW10      30.21S
PARK RAPIDS    NOT AVBL
ELBOW LAKE     FAIR      77  52  41 NE3       30.21F
WADENA         SUNNY     75  54  46 N9        30.21S
DETROIT LAKES  SUNNY     73  52  46 NW9       30.23F
MOORHEAD       SUNNY     79  50  36 NW8       30.21F
FERGUS FALLS   SUNNY     79  54  41 N6        30.21F
MORRIS MN      SUNNY     82  52  34 NW6       30.20S
STAPLES        SUNNY     77  48  36 N7        30.20F
$$
  *****  WEATHER ELSEWHERE ACROSS MINNESOTA  *****

CITY           SKY/WX    TMP DP  RH WIND       PRES   REMARKS
DULUTH         SUNNY     75  51  43 NW12G17   30.16F
INTRNTL FALLS  SUNNY     72  45  37 NW13      30.17F
ELY            SUNNY     72  45  37 NW10      30.16S
CLOQUET        SUNNY     75  46  35 NW7G16    30.17S
WHEATON        SUNNY     82  52  34 N5        30.21F
BRAINERD       SUNNY     76  51  41 N6        30.19F
HIBBING        SUNNY     72  50  45 NW10      30.17F
ALEXANDRIA     SUNNY     78  51  38 N7        30.22F
SAINT CLOUD    SUNNY     77  53  43 NW8       30.18F
MINNEAPOLIS    MOSUNNY   81  55  40 N8        30.15F
$$

  *****  WEATHER ACROSS SOUTH DAKOTA  *****

CITY           SKY/WX    TMP DP  RH WIND       PRES   REMARKS
SIOUX FALLS    CLOUDY    82  70  66 NE13      30.18F
BROOKINGS      SUNNY     79  61  53 E6        30.20F
WATERTOWN      SUNNY     81  55  40 E8        30.21F
HURON          MOSUNNY   85  66  53 E10       30.16F
SISSETON         N/A     81  51  35 E7        30.19F
ABERDEEN       SUNNY     84  55  36 NE10      30.18F
MITCHELL       PTSUNNY   88  66  48 N5        30.16F HX  90
PIERRE         SUNNY     88  66  48 S9        30.13F HX  90
MOBRIDGE       MOSUNNY   88  56  33 E13       30.15F
RAPID CITY     SUNNY     85  60  42 SE12      30.20F
$$

  *****  SOME WEATHER IN NEARBY STATES *****

CITY           SKY/WX    TMP DP  RH WIND       PRES   REMARKS
GLASGOW MT     SUNNY     86  55  34 SE10      30.06F
GREAT FALLS MT CLOUDY    88  45  22 NE6       30.07F
CHEYENNE WY    CLOUDY    71  51  49 SE9       30.35F
SCOTTSBLUFF NE SUNNY     85  54  34 E8        30.23F
OMAHA NE       CLOUDY    80  68  66 N8        30.14F
DES MOINES IA  CLOUDY    83  69  62 N7        30.11F
DAVENPORT IA   PTSUNNY   84  71  65 W6        30.09F
CHICAGO IL     PTSUNNY   84  68  58 VRB6      30.06F
EAU CLAIRE WI  MOSUNNY   78  62  57 N9        30.12S
LA CROSSE WI   PTSUNNY   82  67  60 NW9       30.09F
$$

  *****  SOME NATIONAL WEATHER *****

CITY           SKY/WX    TMP DP  RH WIND       PRES   REMARKS
LA GUARDIA NY  MOSUNNY   84  60  44 S9        30.05F
RALEIGH NC     MOSUNNY   90  64  42 NE10      30.02F HX  91
ATLANTA GA     PTSUNNY   87  67  51 E16       30.02F HX  90
NEW ORLEANS LA MOSUNNY   95  73  48 E7        29.89F HX 104
OKLAHOMA CITY  PTSUNNY   92  63  38 E7        30.04F HX  93
ALBUQUERQUE NM MOSUNNY   79  48  33 E9G21     30.24F
SALT LAKE CITY PTSUNNY   97  24   7 W9        30.06F HX  90
LOS ANGELES CA MOSUNNY   78  64  61 W15       29.83F
BOISE ID       CLOUDY    87  37  17 W9        29.91F
SEATTLE WA     PTSUNNY   67  51  56 SW15      30.02S
$$

*** WEATHER ACROSS MANITOBA...SASKATCHEWAN AND ONTARIO ***
                ***ONTARIO***

CITY           SKY/WX    TMP DP  RH WIND       PRES   REMARKS
GERALDTON      CLOUDY    66  50  55 NW8       30.05F
THUNDER BAY    MOSUNNY   75  46  35 N12G18    30.07S
SIOUX LOOKOUT  MOSUNNY   70  52  52 NW13G20   30.14F
TORONTO        PTSUNNY   86  64  48 W16       30.03F
BIG TROUT LK   LGT RAIN  54  52  94 NW14G23   30.04R FOG
PICKLE LAKE    PTSUNNY   64  52  63 NW10G21   30.08S
DRYDEN         SUNNY     70  46  43 NW7G17    30.16S
KENORA         MOSUNNY   70  45  40 NW12      30.19F
$$
                *** MANITOBA***

CITY           SKY/WX    TMP DP  RH WIND       PRES   REMARKS
BRANDON        PTSUNNY   75  48  38 CALM      30.23F
DAUPHIN        SUNNY     72  41  33 SW3       30.23S
ISLAND LAKE    CLOUDY    59  54  82 NW8       30.17R
PILOT MOUND      N/A     75  48  38 SW3         N/A
THE PAS        CLOUDY    63  52  67 NW5       30.26R
THOMPSON       LGT RAIN  55  48  76 N9        30.26R
WINNIPEG       MOSUNNY   75  43  31 NW12G20   30.21S
LYNN LAKE      CLOUDY    57  48  72 MISG      30.29R
GILLAM         CLOUDY    55  48  76 N15       30.20R
$$
                ***SASKATCHEWAN***

CITY           SKY/WX    TMP DP  RH WIND       PRES   REMARKS
ESTEVAN        PTSUNNY   82  46  28 SE15      30.17F
KINDERSLEY     MOSUNNY   77  50  38 E15G24    30.14F
LLOYDMINSTER   PTSUNNY   68  48  49 SE16G24   30.20F
PRINCE ALBERT  PTSUNNY   66  43  42 VRB2      30.26F
REGINA         MOSUNNY   84  48  28 E16       30.16F
YORKTON        SUNNY     70  48  46 N6        30.23F
N. BATTLEFORD  SUNNY     72  46  40 E14G21    30.23F
LA RONGE       NOT AVBL
SASKATOON      MOSUNNY   72  46  40 E13       30.23F
SWIFT CURRENT  SUNNY     77  55  47 E17G25    30.13S
$$
NOTE: THESE ARE AUTOMATED STATIONS WITH LIMITED QUALITY CONTROL
      "FAIR" INDICATES FEW OR NO CLOUDS BELOW 12,000 FEET WITH NO
      SIGNIFICANT WEATHER AND/OR OBSTRUCTIONS TO VISIBILITY.
      SKY/WX - SKY CONDITION AND SIGNIFICANT WEATHER.
      TMP - AIR TEMPERATURE.    DP   - DEWPOINT TEMPERATURE.
      RH  - RELATIVE HUMIDITY.  PRES - PRESSURE.
      HX  - HEAT INDEX.         WCI  - WIND CHILL INDEX.
$




USA.gov is the U.S. government's official web portal to all federal, state and local government web resources and services.